Year,Month,Day,Hour,Minute,Value (Times are PST for temperature in C)
2008,10,24,11,54,9.80
2008,10,24,11,55,9.80
2008,10,24,11,56,9.80
2008,10,24,11,57,9.80
2008,10,24,11,58,9.80
2008,10,24,11,59,9.90
2008,10,24,12,00,9.90
2008,10,24,12,01,9.90
2008,10,24,12,02,9.90
2008,10,24,12,03,9.90
2008,10,24,12,04,10.00
2008,10,24,12,05,10.00
2008,10,24,12,06,10.00
2008,10,24,12,07,10.10
2008,10,24,12,08,10.10
2008,10,24,12,09,10.10
2008,10,24,12,10,10.10
2008,10,24,12,11,10.10
2008,10,24,12,12,10.10
2008,10,24,12,13,10.10
2008,10,24,12,14,10.10
2008,10,24,12,15,10.10
2008,10,24,12,16,10.10
2008,10,24,12,17,10.10
2008,10,24,12,18,10.10
2008,10,24,12,19,10.10
2008,10,24,12,20,10.10
2008,10,24,12,21,10.10
2008,10,24,12,22,10.10
2008,10,24,12,23,10.20
2008,10,24,12,24,10.20
2008,10,24,12,25,10.30
2008,10,24,12,26,10.30
2008,10,24,12,27,10.40
2008,10,24,12,28,10.50
2008,10,24,12,29,10.60
2008,10,24,12,30,10.60
2008,10,24,12,31,10.70
2008,10,24,12,32,10.70
2008,10,24,12,33,10.80
2008,10,24,12,34,10.80
2008,10,24,12,35,10.80
2008,10,24,12,36,10.80
2008,10,24,12,37,10.90
2008,10,24,12,38,10.90
2008,10,24,12,39,10.90
2008,10,24,12,40,10.90
2008,10,24,12,41,10.90
2008,10,24,12,42,10.90
2008,10,24,12,43,10.90
2008,10,24,12,44,10.90
2008,10,24,12,45,10.90
2008,10,24,12,46,11.00
2008,10,24,12,47,11.00
2008,10,24,12,48,11.00
2008,10,24,12,49,11.00
2008,10,24,12,50,11.00
2008,10,24,12,51,11.00
2008,10,24,12,52,11.10
2008,10,24,12,53,11.10
2008,10,24,12,54,11.10
2008,10,24,12,55,11.10
2008,10,24,12,56,11.10
2008,10,24,12,57,11.10
2008,10,24,12,58,11.10
2008,10,24,12,59,11.10
2008,10,24,13,00,11.10
2008,10,24,13,01,11.10
2008,10,24,13,02,11.10
2008,10,24,13,03,11.10
2008,10,24,13,04,11.10
2008,10,24,13,05,11.10
2008,10,24,13,06,11.00
2008,10,24,13,07,11.00
2008,10,24,13,08,10.90
2008,10,24,13,09,10.90
2008,10,24,13,10,10.90
2008,10,24,13,11,10.90
2008,10,24,13,12,10.90
2008,10,24,13,13,10.90
2008,10,24,13,14,10.80
2008,10,24,13,15,10.80
2008,10,24,13,16,10.80
2008,10,24,13,17,10.80
2008,10,24,13,18,10.80
2008,10,24,13,19,10.80
2008,10,24,13,20,10.80
2008,10,24,13,21,10.80
2008,10,24,13,22,10.80
2008,10,24,13,23,10.80
2008,10,24,13,24,10.70
2008,10,24,13,25,10.70
2008,10,24,13,26,10.70
2008,10,24,13,27,10.70
2008,10,24,13,28,10.70
2008,10,24,13,29,10.70
2008,10,24,13,30,10.70
2008,10,24,13,31,10.70
2008,10,24,13,32,10.70
2008,10,24,13,33,10.70
2008,10,24,13,34,10.60
2008,10,24,13,35,10.60
2008,10,24,13,36,10.60
2008,10,24,13,37,10.60
2008,10,24,13,38,10.60
2008,10,24,13,39,10.70
2008,10,24,13,40,10.70
2008,10,24,13,41,10.70
2008,10,24,13,42,10.70
2008,10,24,13,43,10.70
2008,10,24,13,44,10.70
2008,10,24,13,45,10.70
2008,10,24,13,46,10.70
2008,10,24,13,47,10.70
2008,10,24,13,48,10.70
2008,10,24,13,49,10.70
2008,10,24,13,50,10.80
2008,10,24,13,51,10.80
2008,10,24,13,52,10.80
2008,10,24,13,53,10.80
2008,10,24,13,54,10.80
2008,10,24,13,55,10.80
2008,10,24,13,56,10.80
2008,10,24,13,57,10.80
2008,10,24,13,58,10.80
2008,10,24,13,59,10.80
2008,10,24,14,00,10.80
2008,10,24,14,01,10.80
2008,10,24,14,02,10.80
2008,10,24,14,03,10.80
2008,10,24,14,04,10.80
2008,10,24,14,05,10.80
2008,10,24,14,06,10.80
2008,10,24,14,07,10.80
2008,10,24,14,08,10.80
2008,10,24,14,09,10.80
2008,10,24,14,10,10.80
2008,10,24,14,11,10.80
2008,10,24,14,12,10.80
2008,10,24,14,13,10.80
2008,10,24,14,14,10.80
2008,10,24,14,15,10.80
2008,10,24,14,16,10.80
2008,10,24,14,17,10.80
2008,10,24,14,18,10.80
2008,10,24,14,19,10.80
2008,10,24,14,20,10.80
2008,10,24,14,21,10.80
2008,10,24,14,22,10.80
2008,10,24,14,23,10.80
2008,10,24,14,24,10.80
2008,10,24,14,25,10.70
2008,10,24,14,26,10.70
2008,10,24,14,27,10.70
2008,10,24,14,28,10.70
2008,10,24,14,29,10.70
2008,10,24,14,30,10.70
2008,10,24,14,31,10.70
2008,10,24,14,32,10.70
2008,10,24,14,33,10.70
2008,10,24,14,34,10.70
2008,10,24,14,35,10.70
2008,10,24,14,36,10.70
2008,10,24,14,37,10.70
2008,10,24,14,38,10.70
2008,10,24,14,39,10.70
2008,10,24,14,40,10.60
2008,10,24,14,41,10.60
2008,10,24,14,42,10.60
2008,10,24,14,43,10.60
2008,10,24,14,44,10.60
2008,10,24,14,45,10.70
2008,10,24,14,46,10.70
2008,10,24,14,47,10.70
2008,10,24,14,49,10.70
2008,10,24,14,50,10.60
2008,10,24,14,51,10.70
2008,10,24,14,52,10.60
2008,10,24,14,53,10.60
2008,10,24,14,54,10.60
2008,10,24,14,55,10.60
2008,10,24,14,56,10.60
2008,10,24,14,57,10.60
2008,10,24,14,58,10.60
2008,10,24,14,59,10.60
2008,10,24,15,00,10.60
2008,10,24,15,01,10.60
2008,10,24,15,02,10.60
2008,10,24,15,03,10.60
2008,10,24,15,04,10.60
2008,10,24,15,05,10.60
2008,10,24,15,06,10.60
2008,10,24,15,07,10.60
2008,10,24,15,08,10.60
2008,10,24,15,09,10.60
2008,10,24,15,10,10.60
2008,10,24,15,11,10.60
2008,10,24,15,12,10.60
2008,10,24,15,13,10.60
2008,10,24,15,14,10.60
2008,10,24,15,15,10.60
2008,10,24,15,16,10.60
2008,10,24,15,17,10.60
2008,10,24,15,18,10.60
2008,10,24,15,19,10.60
2008,10,24,15,20,10.60
2008,10,24,15,21,10.60
2008,10,24,15,22,10.60
2008,10,24,15,23,10.60
2008,10,24,15,24,10.60
2008,10,24,15,25,10.60
2008,10,24,15,26,10.60
2008,10,24,15,27,10.60
2008,10,24,15,28,10.60
2008,10,24,15,29,10.60
2008,10,24,15,30,10.60
2008,10,24,15,31,10.60
2008,10,24,15,32,10.60
2008,10,24,15,33,10.60
2008,10,24,15,34,10.60
2008,10,24,15,35,10.60
2008,10,24,15,36,10.60
2008,10,24,15,37,10.60
2008,10,24,15,40,10.60
2008,10,24,15,41,10.60
2008,10,24,15,42,10.60
2008,10,24,15,43,10.60
2008,10,24,15,44,10.60
2008,10,24,15,45,10.60
2008,10,24,15,46,10.60
2008,10,24,15,47,10.60
2008,10,24,15,48,10.60
2008,10,24,15,49,10.60
2008,10,24,15,50,10.60
2008,10,24,15,51,10.60
2008,10,24,15,52,10.70
2008,10,24,15,53,10.70
2008,10,24,15,54,10.70
2008,10,24,15,55,10.70
2008,10,24,15,56,10.70
2008,10,24,15,57,10.70
2008,10,24,15,58,10.70
2008,10,24,15,59,10.70
2008,10,24,16,00,10.70
2008,10,24,16,01,10.70
2008,10,24,16,02,10.70
2008,10,24,16,03,10.60
2008,10,24,16,04,10.60
2008,10,24,16,05,10.60
2008,10,24,16,06,10.60
2008,10,24,16,07,10.60
2008,10,24,16,08,10.60
2008,10,24,16,09,10.60
2008,10,24,16,10,10.60
2008,10,24,16,11,10.60
2008,10,24,16,12,10.60
2008,10,24,16,13,10.60
2008,10,24,16,14,10.60
2008,10,24,16,15,10.60
2008,10,24,16,16,10.60
2008,10,24,16,17,10.60
2008,10,24,16,18,10.60
2008,10,24,16,19,10.60
2008,10,24,16,20,10.60
2008,10,24,16,21,10.60
2008,10,24,16,22,10.60
2008,10,24,16,23,10.60
2008,10,24,16,24,10.50
2008,10,24,16,25,10.50
2008,10,24,16,26,10.50
2008,10,24,16,27,10.50
2008,10,24,16,28,10.50
2008,10,24,16,29,10.50
2008,10,24,16,30,10.50
2008,10,24,16,31,10.50
2008,10,24,16,32,10.50
2008,10,24,16,33,10.50
2008,10,24,16,34,10.50
2008,10,24,16,35,10.50
2008,10,24,16,36,10.40
2008,10,24,16,37,10.40
2008,10,24,16,38,10.40
2008,10,24,16,39,10.40
2008,10,24,16,40,10.40
2008,10,24,16,41,10.40
2008,10,24,16,42,10.40
2008,10,24,16,43,10.40
2008,10,24,16,44,10.40
2008,10,24,16,45,10.30
2008,10,24,16,46,10.30
2008,10,24,16,47,10.30
2008,10,24,16,48,10.30
2008,10,24,16,49,10.30
2008,10,24,16,50,10.30
2008,10,24,16,51,10.30
2008,10,24,16,52,10.30
2008,10,24,16,53,10.30
2008,10,24,16,54,10.30
2008,10,24,16,55,10.30
2008,10,24,16,56,10.30
2008,10,24,16,57,10.30
2008,10,24,16,58,10.30
2008,10,24,16,59,10.30
2008,10,24,17,00,10.30
2008,10,24,17,01,10.30
2008,10,24,17,02,10.30
2008,10,24,17,03,10.40
2008,10,24,17,04,10.40
2008,10,24,17,05,10.40
2008,10,24,17,06,10.40
2008,10,24,17,07,10.30
2008,10,24,17,08,10.30
2008,10,24,17,09,10.40
2008,10,24,17,10,10.40
2008,10,24,17,11,10.40
2008,10,24,17,12,10.40
2008,10,24,17,13,10.40
2008,10,24,17,14,10.40
2008,10,24,17,15,10.40
2008,10,24,17,16,10.40
2008,10,24,17,17,10.30
2008,10,24,17,18,10.30
2008,10,24,17,19,10.30
2008,10,24,17,20,10.30
2008,10,24,17,21,10.30
2008,10,24,17,22,10.30
2008,10,24,17,23,10.30
2008,10,24,17,24,10.30
2008,10,24,17,25,10.20
2008,10,24,17,26,10.20
2008,10,24,17,27,10.20
2008,10,24,17,28,10.20
2008,10,24,17,29,10.20
2008,10,24,17,30,10.20
2008,10,24,17,31,10.20
2008,10,24,17,32,10.20
2008,10,24,17,33,10.10
2008,10,24,17,34,10.10
2008,10,24,17,35,10.10
2008,10,24,17,36,10.10
2008,10,24,17,37,10.10
2008,10,24,17,38,10.10
2008,10,24,17,39,10.10
2008,10,24,17,40,10.10
2008,10,24,17,41,10.10
2008,10,24,17,42,10.10
2008,10,24,17,43,10.10
2008,10,24,17,44,10.10
2008,10,24,17,45,10.10
2008,10,24,17,46,10.10
2008,10,24,17,47,10.10
2008,10,24,17,48,10.10
2008,10,24,17,49,10.10
2008,10,24,17,50,10.10
2008,10,24,17,51,10.10
2008,10,24,17,52,10.10
2008,10,24,17,53,10.10
2008,10,24,17,54,10.10
2008,10,24,17,55,10.00
2008,10,24,17,56,10.00
2008,10,24,17,57,10.00
2008,10,24,17,58,10.00
2008,10,24,17,59,10.00
2008,10,24,18,00,9.90
2008,10,24,18,01,9.90
2008,10,24,18,02,9.90
2008,10,24,18,03,9.90
2008,10,24,18,04,9.90
2008,10,24,18,05,9.90
2008,10,24,18,06,9.90
2008,10,24,18,07,9.90
2008,10,24,18,08,9.90
2008,10,24,18,09,9.90
2008,10,24,18,10,9.90
2008,10,24,18,11,9.80
2008,10,24,18,12,9.80
2008,10,24,18,13,9.80
2008,10,24,18,14,9.80
2008,10,24,18,15,9.80
2008,10,24,18,16,9.80
2008,10,24,18,17,9.80
2008,10,24,18,18,9.80
2008,10,24,18,19,9.80
2008,10,24,18,20,9.80
2008,10,24,18,21,9.80
2008,10,24,18,22,9.80
2008,10,24,18,23,9.80
2008,10,24,18,24,9.80
2008,10,24,18,25,9.80
2008,10,24,18,26,9.80
2008,10,24,18,27,9.80
2008,10,24,18,28,9.70
2008,10,24,18,29,9.70
2008,10,24,18,30,9.70
2008,10,24,18,31,9.70
2008,10,24,18,32,9.70
2008,10,24,18,33,9.70
2008,10,24,18,34,9.60
2008,10,24,18,35,9.60
2008,10,24,18,36,9.60
2008,10,24,18,37,9.60
2008,10,24,18,38,9.60
2008,10,24,18,39,9.60
2008,10,24,18,40,9.60
2008,10,24,18,41,9.60
2008,10,24,18,42,9.60
2008,10,24,18,43,9.50
2008,10,24,18,44,9.50
2008,10,24,18,45,9.50
2008,10,24,18,46,9.40
2008,10,24,18,47,9.40
2008,10,24,18,48,9.40
2008,10,24,18,49,9.40
2008,10,24,18,50,9.40
2008,10,24,18,51,9.40
2008,10,24,18,52,9.40
2008,10,24,18,53,9.40
2008,10,24,18,54,9.40
2008,10,24,18,55,9.40
2008,10,24,18,56,9.40
2008,10,24,18,57,9.40
2008,10,24,18,58,9.50
2008,10,24,18,59,9.50
2008,10,24,19,00,9.50
2008,10,24,19,01,9.50
2008,10,24,19,02,9.60
2008,10,24,19,03,9.60
2008,10,24,19,04,9.60
2008,10,24,19,05,9.60
2008,10,24,19,06,9.60
2008,10,24,19,07,9.60
2008,10,24,19,08,9.60
2008,10,24,19,09,9.60
2008,10,24,19,10,9.60
2008,10,24,19,11,9.60
2008,10,24,19,12,9.60
2008,10,24,19,13,9.60
2008,10,24,19,14,9.60
2008,10,24,19,15,9.60
2008,10,24,19,16,9.60
2008,10,24,19,17,9.60
2008,10,24,19,18,9.60
2008,10,24,19,19,9.60
2008,10,24,19,20,9.60
2008,10,24,19,21,9.70
2008,10,24,19,22,9.70
2008,10,24,19,23,9.60
2008,10,24,19,24,9.60
2008,10,24,19,25,9.60
2008,10,24,19,26,9.60
2008,10,24,19,27,9.60
2008,10,24,19,28,9.60
2008,10,24,19,29,9.60
2008,10,24,19,30,9.60
2008,10,24,19,31,9.60
2008,10,24,19,32,9.60
2008,10,24,19,33,9.60
2008,10,24,19,34,9.60
2008,10,24,19,35,9.60
2008,10,24,19,36,9.60
2008,10,24,19,37,9.60
2008,10,24,19,38,9.60
2008,10,24,19,39,9.60
2008,10,24,19,40,9.60
2008,10,24,19,41,9.60
2008,10,24,19,42,9.60
2008,10,24,19,43,9.50
2008,10,24,19,44,9.50
2008,10,24,19,45,9.50
2008,10,24,19,46,9.50
2008,10,24,19,47,9.50
2008,10,24,19,48,9.40
2008,10,24,19,49,9.40
2008,10,24,19,50,9.40
2008,10,24,19,51,9.40
2008,10,24,19,52,9.40
2008,10,24,19,53,9.40
2008,10,24,19,54,9.40
2008,10,24,19,55,9.40
2008,10,24,19,56,9.40
2008,10,24,19,57,9.40
2008,10,24,19,58,9.40
2008,10,24,19,59,9.40
2008,10,24,20,00,9.40
2008,10,24,20,01,9.40
2008,10,24,20,02,9.30
2008,10,24,20,03,9.30
2008,10,24,20,04,9.30
2008,10,24,20,05,9.30
2008,10,24,20,06,9.30
2008,10,24,20,07,9.30
2008,10,24,20,08,9.30
2008,10,24,20,09,9.30
2008,10,24,20,10,9.30
2008,10,24,20,11,9.30
2008,10,24,20,12,9.30
2008,10,24,20,13,9.20
2008,10,24,20,14,9.20
2008,10,24,20,15,9.20
2008,10,24,20,16,9.20
2008,10,24,20,17,9.20
2008,10,24,20,18,9.20
2008,10,24,20,19,9.20
2008,10,24,20,20,9.20
2008,10,24,20,21,9.20
2008,10,24,20,22,9.20
2008,10,24,20,23,9.20
2008,10,24,20,24,9.20
2008,10,24,20,25,9.20
2008,10,24,20,26,9.20
2008,10,24,20,27,9.20
2008,10,24,20,28,9.20
2008,10,24,20,29,9.20
2008,10,24,20,30,9.20
2008,10,24,20,31,9.20
2008,10,24,20,32,9.20
2008,10,24,20,33,9.20
2008,10,24,20,34,9.20
2008,10,24,20,35,9.20
2008,10,24,20,36,9.20
2008,10,24,20,37,9.20
2008,10,24,20,38,9.20
2008,10,24,20,39,9.20
2008,10,24,20,40,9.20
2008,10,24,20,41,9.20
2008,10,24,20,42,9.20
2008,10,24,20,43,9.20
2008,10,24,20,44,9.20
2008,10,24,20,45,9.20
2008,10,24,20,46,9.10
2008,10,24,20,47,9.10
2008,10,24,20,48,9.10
2008,10,24,20,49,9.10
2008,10,24,20,50,9.10
2008,10,24,20,51,9.10
2008,10,24,20,52,9.10
2008,10,24,20,53,9.00
2008,10,24,20,54,9.00
2008,10,24,20,55,9.00
2008,10,24,20,56,9.00
2008,10,24,20,57,9.00
2008,10,24,20,58,9.00
2008,10,24,20,59,9.00
2008,10,24,21,00,9.00
2008,10,24,21,01,9.00
2008,10,24,21,02,9.00
2008,10,24,21,03,9.00
2008,10,24,21,04,9.00
2008,10,24,21,05,9.00
2008,10,24,21,06,9.00
2008,10,24,21,07,9.00
2008,10,24,21,08,9.00
2008,10,24,21,09,9.00
2008,10,24,21,10,9.00
2008,10,24,21,11,9.00
2008,10,24,21,12,9.10
2008,10,24,21,13,9.10
2008,10,24,21,14,9.10
2008,10,24,21,15,9.10
2008,10,24,21,16,9.10
2008,10,24,21,17,9.10
2008,10,24,21,18,9.10
2008,10,24,21,19,9.10
2008,10,24,21,20,9.10
2008,10,24,21,21,9.10
2008,10,24,21,22,9.10
2008,10,24,21,23,9.10
2008,10,24,21,24,9.10
2008,10,24,21,25,9.10
2008,10,24,21,26,9.10
2008,10,24,21,27,9.10
2008,10,24,21,28,9.10
2008,10,24,21,29,9.10
2008,10,24,21,30,9.10
2008,10,24,21,31,9.10
2008,10,24,21,32,9.10
2008,10,24,21,33,9.10
2008,10,24,21,34,9.10
2008,10,24,21,35,9.10
2008,10,24,21,36,9.10
2008,10,24,21,37,9.10
2008,10,24,21,38,9.20
2008,10,24,21,39,9.20
2008,10,24,21,40,9.20
2008,10,24,21,41,9.30
2008,10,24,21,42,9.30
2008,10,24,21,43,9.30
2008,10,24,21,44,9.30
2008,10,24,21,45,9.30
2008,10,24,21,46,9.30
2008,10,24,21,47,9.30
2008,10,24,21,48,9.30
2008,10,24,21,49,9.30
2008,10,24,21,50,9.30
2008,10,24,21,51,9.30
2008,10,24,21,52,9.30
2008,10,24,21,53,9.30
2008,10,24,21,54,9.30
2008,10,24,21,55,9.30
2008,10,24,21,56,9.30
2008,10,24,21,57,9.30
2008,10,24,21,58,9.30
2008,10,24,21,59,9.30
2008,10,24,22,00,9.30
2008,10,24,22,01,9.30
2008,10,24,22,02,9.30
2008,10,24,22,03,9.30
2008,10,24,22,04,9.30
2008,10,24,22,05,9.20
2008,10,24,22,06,9.20
2008,10,24,22,07,9.20
2008,10,24,22,08,9.20
2008,10,24,22,09,9.20
2008,10,24,22,10,9.20
2008,10,24,22,11,9.20
2008,10,24,22,12,9.20
2008,10,24,22,13,9.20
2008,10,24,22,14,9.20
2008,10,24,22,15,9.20
2008,10,24,22,16,9.20
2008,10,24,22,17,9.20
2008,10,24,22,18,9.20
2008,10,24,22,19,9.20
2008,10,24,22,20,9.20
2008,10,24,22,21,9.20
2008,10,24,22,22,9.20
2008,10,24,22,23,9.20
2008,10,24,22,24,9.20
2008,10,24,22,25,9.20
2008,10,24,22,26,9.10
2008,10,24,22,27,9.10
2008,10,24,22,28,9.10
2008,10,24,22,29,9.10
2008,10,24,22,30,9.10
2008,10,24,22,31,9.10
2008,10,24,22,32,9.00
2008,10,24,22,33,9.00
2008,10,24,22,34,9.00
2008,10,24,22,35,9.00
2008,10,24,22,36,9.00
2008,10,24,22,37,9.00
2008,10,24,22,38,9.00
2008,10,24,22,39,9.10
2008,10,24,22,40,9.10
2008,10,24,22,41,9.10
2008,10,24,22,42,9.10
2008,10,24,22,43,9.10
2008,10,24,22,44,9.10
2008,10,24,22,45,9.10
2008,10,24,22,46,9.10
2008,10,24,22,47,9.10
2008,10,24,22,48,9.10
2008,10,24,22,49,9.10
2008,10,24,22,50,9.10
2008,10,24,22,51,9.10
2008,10,24,22,52,9.10
2008,10,24,22,53,9.10
2008,10,24,22,54,9.10
2008,10,24,22,55,9.10
2008,10,24,22,56,9.10
2008,10,24,22,57,9.10
2008,10,24,22,58,9.10
2008,10,24,22,59,9.10
2008,10,24,23,00,9.10
2008,10,24,23,01,9.10
2008,10,24,23,02,9.10
2008,10,24,23,03,9.10
2008,10,24,23,04,9.10
2008,10,24,23,05,9.10
2008,10,24,23,06,9.10
2008,10,24,23,07,9.10
2008,10,24,23,08,9.10
2008,10,24,23,09,9.10
2008,10,24,23,10,9.10
2008,10,24,23,11,9.10
2008,10,24,23,12,9.10
2008,10,24,23,13,9.10
2008,10,24,23,14,9.10
2008,10,24,23,15,9.10
2008,10,24,23,16,9.10
2008,10,24,23,17,9.10
2008,10,24,23,18,9.10
2008,10,24,23,19,9.10
2008,10,24,23,20,9.10
2008,10,24,23,21,9.10
2008,10,24,23,22,9.10
2008,10,24,23,23,9.10
2008,10,24,23,24,9.10
2008,10,24,23,25,9.10
2008,10,24,23,26,9.10
2008,10,24,23,27,9.00
2008,10,24,23,28,9.00
2008,10,24,23,29,9.10
2008,10,24,23,30,9.10
2008,10,24,23,31,9.10
2008,10,24,23,32,9.10
2008,10,24,23,33,9.00
2008,10,24,23,34,8.90
2008,10,24,23,35,8.90
2008,10,24,23,36,8.90
2008,10,24,23,37,8.90
2008,10,24,23,38,8.90
2008,10,24,23,39,8.90
2008,10,24,23,40,8.90
2008,10,24,23,41,8.90
2008,10,24,23,42,8.90
2008,10,24,23,43,8.90
2008,10,24,23,44,8.90
2008,10,24,23,45,8.90
2008,10,24,23,46,8.90
2008,10,24,23,47,8.90
2008,10,24,23,48,8.90
2008,10,24,23,49,8.90
2008,10,24,23,50,8.90
2008,10,24,23,51,8.80
2008,10,24,23,52,8.80
2008,10,24,23,53,8.80
2008,10,24,23,54,8.80
2008,10,24,23,55,8.80
2008,10,24,23,56,8.80
2008,10,24,23,57,8.80
2008,10,24,23,58,8.80
2008,10,24,23,59,8.80
